User: anonymous   Login
Location: Newark
(35.0033°N, 81.0878°W)
Time: 05:35:25
(UTC+00:00)
Language:

CAS-4B - Orbit

View from above orbital plane
View from above orbital plane
View from above satellite
View from above satellite

Ground track
Ground track

The orbit data is extracted from the following two-line orbital elements,

1 42759U 17034B   19293.40708098  .00000214  00000-0  26603-4 0  9990
2 42759  43.0193 271.2700 0012682 309.6860 180.8060 15.09658011129538
Epoch (UTC): 20 October 2019 09:46:11
Eccentricity: 0.0012682
inclination: 43.0193°
perigee height: 528 km
apogee height: 546 km
right ascension of ascending node: 271.2700°
argument of perigee: 309.6860°
revolutions per day: 15.09658011
mean anomaly at epoch: 180.8060°
orbit number at epoch: 12953

The dashed part of the orbit path shows where the satellite is in the earth's shadow,  

DLR